Wind_Speed
26 24 25 23 25 31 37 39 38 37 32 26 27 26 22 21 21 20 19 19 18 18 16 16 16 16 15 14 14 14 14 14 13 13 14 15 15 16 16 16 16 15 16 14 13 12 12 12 12 12 13 14
25 25 25 24 25 29 35 38 39 37 31 27 27 25 22 22 22 21 20 19 18 17 16 16 17 16 15 15 14 14 14 13 13 13 14 14 15 15 15 15 15 15 15 14 13 13 12 12 12 13 13 14
25 25 26 25 26 30 34 38 40 36 30 28 28 25 23 23 23 22 20 19 18 17 16 17 17 16 16 15 14 14 13 13 13 13 13 14 14 14 15 15 15 14 14 14 13 13 12 12 13 14 14 14
24 24 25 26 28 32 35 39 39 34 30 30 29 26 24 24 24 23 21 19 18 17 17 17 17 16 16 14 14 13 13 12 12 13 13 14 13 14 15 15 14 13 13 13 13 13 12 12 13 14 14 14
24 24 24 27 30 33 35 39 36 32 33 33 30 27 25 25 24 22 20 19 18 18 18 17 16 16 15 14 14 13 13 12 12 13 13 13 13 14 15 15 14 13 13 13 13 12 12 13 13 13 14 14
24 24 25 28 32 34 36 37 33 31 35 34 31 28 26 26 25 22 21 19 19 18 17 16 16 16 15 14 13 13 13 13 13 13 13 14 14 15 15 14 13 13 13 13 13 13 13 13 14 14 14 14
27 28 27 28 31 34 36 37 34 32 35 35 32 29 27 27 25 22 21 20 19 17 16 16 16 16 15 14 13 13 13 13 13 13 14 14 14 14 14 13 13 12 12 13 14 13 13 14 14 15 15 14
30 33 30 25 26 31 36 39 35 32 34 35 32 28 27 27 24 22 21 19 18 17 17 17 16 15 15 14 13 13 13 14 14 13 14 13 13 13 13 13 12 12 12 13 13 13 13 14 15 15 15 15
32 33 30 24 24 29 35 38 34 32 35 35 30 27 26 26 24 22 21 19 19 18 17 17 16 15 15 14 13 13 13 14 14 14 13 13 13 14 13 13 13 12 12 12 12 13 14 14 15 15 16 16
34 33 29 25 24 28 35 37 36 37 38 35 30 26 25 24 24 23 21 20 19 18 17 17 16 15 15 14 13 13 13 14 14 14 13 13 14 14 14 13 13 12 12 12 12 13 13 14 15 16 16 16
36 34 27 24 24 27 33 36 39 40 37 32 28 25 25 24 24 23 21 20 19 19 18 17 16 15 14 13 13 13 13 14 14 14 13 14 14 14 14 13 13 12 12 12 12 13 13 14 15 16 16 16
36 33 26 24 23 26 33 37 39 38 32 27 25 24 24 24 24 23 21 20 20 19 18 17 15 15 14 13 13 13 13 13 14 14 14 14 14 14 14 13 13 12 13 13 13 13 13 14 15 17 17 17
34 29 25 25 25 25 30 35 34 34 30 26 24 23 23 24 24 23 21 21 21 20 18 17 15 14 14 13 13 13 13 13 13 14 14 14 14 14 14 14 14 13 14 14 14 15 15 16 17 17 17 17
33 28 26 25 25 24 26 31 33 33 31 26 24 23 23 25 25 24 23 21 21 20 18 17 16 15 14 14 13 12 13 13 13 14 15 14 14 14 14 14 14 14 14 14 14 15 16 18 18 18 18 18
35 31 26 23 22 23 25 28 31 30 27 24 23 24 24 26 26 24 23 22 21 21 19 18 16 15 14 14 13 12 12 13 13 14 14 14 14 14 14 15 15 15 14 14 15 15 16 18 19 19 18 18
38 34 26 22 20 22 24 25 27 27 26 25 24 26 26 27 27 24 23 22 21 21 20 18 17 15 15 14 13 13 12 13 13 14 14 14 14 14 14 15 15 15 15 15 15 15 16 18 19 19 18 18
39 36 27 22 21 21 22 24 28 28 28 27 25 26 27 27 27 25 23 23 22 22 21 19 17 16 16 15 14 13 13 13 13 13 13 13 13 13 13 14 15 15 15 15 15 15 16 18 19 19 18 19
35 34 30 26 24 21 21 25 28 29 28 25 22 25 27 26 27 26 24 23 23 22 21 19 18 17 17 16 15 14 13 13 13 13 13 13 13 13 13 14 15 15 15 15 15 15 16 17 19 19 19 19
32 34 36 32 30 28 25 27 29 28 26 21 20 24 26 26 27 26 24 24 23 22 21 20 19 18 18 17 16 15 14 14 13 13 13 13 13 13 13 14 14 15 15 15 15 15 16 17 18 19 19 20
33 36 36 30 32 31 24 25 25 23 22 19 18 21 25 27 26 25 24 23 22 22 21 21 20 19 19 19 17 16 16 15 14 14 14 13 13 13 13 14 14 14 15 15 16 16 16 17 18 19 19 20
36 35 33 30 31 27 21 22 21 20 21 19 18 20 23 26 25 24 23 23 22 22 22 21 21 21 21 20 19 18 17 17 16 15 15 15 14 14 13 14 14 14 14 15 16 16 16 17 17 18 19 20
34 31 33 31 24 17 16 17 16 18 19 18 17 19 22 24 25 24 23 23 22 22 22 22 22 22 22 22 20 19 19 18 17 16 16 16 15 15 14 14 15 15 15 15 15 16 16 17 18 18 19 19
33 29 33 31 23 18 16 15 15 16 17 16 17 18 21 22 22 23 23 23 23 23 22 22 22 22 23 23 22 21 20 20 19 17 17 16 16 16 15 15 16 16 16 15 15 15 16 17 17 18 18 18
32 29 30 28 25 24 22 20 18 17 16 15 16 17 18 19 20 21 23 23 23 23 23 22 22 22 23 23 23 22 22 21 21 20 19 19 18 18 17 16 16 16 16 16 16 16 17 17 17 17 18 18
30 29 28 26 25 24 24 25 23 19 17 16 16 16 16 16 18 20 21 22 23 23 23 23 23 23 24 24 23 23 23 24 23 23 22 21 20 19 19 18 17 18 18 18 18 18 18 19 19 19 19 18
26 29 30 31 30 27 27 30 29 23 20 18 17 18 18 17 18 20 20 20 21 22 22 22 23 24 25 25 24 24 24 25 24 24 24 23 22 21 21 20 20 20 21 20 20 20 21 21 21 21 20 19
22 23 25 29 32 33 33 30 28 25 23 21 19 19 19 17 15 17 19 19 20 21 21 22 23 24 25 26 26 25 25 25 25 25 25 25 24 24 24 24 23 23 22 22 22 23 24 23 23 23 21 20
21 21 21 22 25 29 32 30 28 27 26 23 20 19 19 18 15 15 17 18 20 20 20 21 21 22 25 26 27 28 27 26 26 26 26 26 26 26 26 26 25 25 25 25 24 25 25 25 26 24 22 22
18 20 20 20 20 20 23 26 28 30 30 26 21 19 19 21 20 17 17 17 18 20 20 20 20 21 23 25 27 29 29 28 28 28 28 27 27 27 27 27 28 28 27 26 26 27 27 26 26 23 22 23
16 17 18 20 21 20 20 21 25 30 33 29 24 21 19 19 20 19 19 19 18 17 16 16 18 20 23 26 27 29 31 30 30 30 29 29 29 28 29 29 30 29 28 28 28 28 28 27 27 25 24 25
19 19 20 20 21 21 21 21 24 29 34 33 30 28 25 23 23 21 19 21 19 16 15 15 16 18 21 24 27 30 31 31 31 32 32 31 30 30 30 31 31 29 29 30 30 29 29 30 29 28 27 28
Wind_Direction
245 245 246 246 243 238 233 228 224 223 219 217 221 222 220 221 224 224 227 231 232 233 231 229 229 231 233 234 232 232 233 234 235 237 240 241 239 238 238 238 237 238 240 241 236 231 226 218 209 201 197 197
236 240 243 242 240 238 236 232 228 224 218 217 221 221 217 218 222 224 226 228 229 229 227 227 229 233 235 235 233 233 234 234 235 236 239 240 238 238 238 238 238 239 241 242 237 232 228 221 213 206 202 200
232 236 239 238 236 235 235 233 230 225 218 219 220 218 217 216 219 223 226 226 226 225 224 226 229 234 234 235 235 234 235 234 235 234 237 237 237 237 237 238 236 238 241 242 239 235 230 223 217 212 208 206
230 232 232 231 231 232 233 233 229 223 218 220 219 217 217 218 219 221 224 224 223 221 222 227 229 234 235 236 235 235 235 233 234 233 234 235 236 235 234 236 234 235 238 240 240 236 232 226 222 219 216 213
229 228 227 226 228 229 231 233 227 218 217 220 218 217 216 218 220 220 222 222 221 220 222 227 229 234 237 237 236 236 235 231 231 231 233 234 233 233 233 234 232 232 233 235 237 234 232 229 226 224 222 219
234 230 225 224 227 227 229 233 224 216 218 219 217 215 214 218 221 221 222 222 221 222 225 228 231 236 236 238 238 236 235 230 228 229 231 232 232 234 235 236 234 232 231 232 232 230 229 229 227 225 225 224
232 232 229 226 230 229 228 230 221 216 218 218 216 212 212 216 220 221 222 223 223 224 226 229 232 235 236 237 236 235 235 230 227 227 229 232 234 236 237 238 235 234 233 232 231 228 225 226 226 225 225 224
227 235 240 236 239 235 230 229 221 217 218 218 217 211 211 215 218 219 220 222 223 224 225 229 231 234 236 237 237 236 235 232 228 227 230 232 234 235 236 236 235 233 232 231 230 228 224 223 224 224 224 222
226 234 243 245 248 241 235 234 226 219 218 217 216 212 213 216 217 217 218 219 222 224 226 229 231 235 237 237 238 238 237 235 231 229 229 230 230 233 233 233 233 231 230 229 229 227 224 221 221 223 224 222
230 229 234 245 250 243 238 236 229 220 217 216 213 211 214 217 219 218 216 217 221 224 226 229 231 235 238 238 238 238 238 237 234 231 229 229 230 231 231 231 230 229 228 226 227 227 222 220 219 221 222 222
233 226 226 243 248 244 240 236 231 224 220 218 213 210 213 216 220 220 215 216 221 224 225 228 229 234 238 239 240 238 238 238 237 234 230 232 231 232 233 232 230 228 227 222 221 223 221 220 219 220 220 221
228 225 226 240 242 241 238 235 235 231 228 226 218 212 212 216 220 220 216 215 220 223 225 227 228 233 237 238 239 239 238 237 238 237 234 234 234 234 235 234 231 228 227 222 216 215 217 221 220 220 218 218
225 225 231 238 237 237 238 238 237 232 232 233 226 218 214 218 221 219 216 216 221 223 224 226 227 231 235 237 237 238 238 237 236 238 237 236 236 236 236 236 233 229 229 226 218 212 210 217 221 220 217 216
231 228 233 235 235 236 234 235 235 233 235 233 228 223 220 222 222 218 216 216 220 224 224 224 226 229 232 235 236 236 236 237 236 236 238 237 237 238 238 238 235 231 229 229 225 217 210 214 220 219 217 216
238 233 230 228 238 240 231 230 233 239 246 244 236 227 224 226 224 219 217 217 219 224 225 223 223 225 230 233 235 235 234 235 235 235 237 237 237 239 240 240 239 236 231 229 227 222 217 217 221 221 218 218
240 236 234 225 234 240 233 235 237 242 252 260 255 238 227 228 227 222 219 219 219 223 225 224 222 223 227 231 233 234 233 235 235 235 235 236 236 238 241 243 243 242 237 233 228 224 221 220 224 223 220 221
245 237 232 222 228 239 236 238 241 243 251 262 260 241 230 229 227 224 221 220 220 223 225 225 224 223 226 228 231 232 233 236 237 235 235 235 235 236 239 242 244 244 242 238 232 226 223 224 227 226 222 222
252 244 240 231 225 229 230 233 240 245 250 258 253 236 229 230 229 225 221 219 220 223 225 225 225 225 227 228 228 231 233 236 239 238 236 234 234 233 235 239 242 243 243 241 236 230 225 226 230 230 226 224
251 250 249 244 228 221 223 229 236 241 244 246 242 233 226 226 229 227 223 219 219 222 224 226 226 226 228 229 228 230 232 234 237 240 239 236 234 232 232 235 239 242 243 242 238 233 229 227 230 234 233 229
249 247 248 244 229 224 226 228 233 237 237 232 226 227 225 224 227 228 226 222 220 221 223 226 227 228 230 230 230 230 232 233 233 238 241 239 236 234 232 232 235 238 241 242 240 236 232 230 231 235 237 236
236 239 239 232 224 224 226 225 232 236 234 227 217 217 220 221 225 227 226 223 222 222 223 226 227 229 231 232 231 229 232 234 233 235 240 241 239 237 235 234 234 234 236 238 240 240 236 233 233 235 238 240
232 233 229 227 226 228 231 227 233 235 230 223 212 208 212 217 222 226 226 224 223 222 222 224 226 228 231 233 232 231 233 235 235 235 237 240 241 239 237 236 236 235 234 234 237 241 241 239 237 236 237 240
235 227 223 234 237 227 230 236 239 231 222 216 209 207 212 219 226 229 232 230 227 226 224 225 226 227 231 233 233 232 234 235 236 236 236 237 239 240 239 237 239 241 239 237 237 238 240 242 242 241 241 242
232 221 222 243 250 235 228 229 236 231 217 209 207 210 216 223 231 235 237 238 235 233 230 228 227 228 231 233 233 232 234 236 235 235 235 235 236 238 239 239 241 243 243 241 240 240 240 241 242 243 244 243
238 234 236 252 262 254 241 233 235 232 216 206 202 207 216 223 231 237 238 240 242 240 235 232 231 231 232 234 235 234 233 235 236 236 237 238 238 239 240 240 240 241 243 243 243 243 242 241 241 242 243 243
240 245 249 254 256 255 252 244 237 235 227 218 213 214 215 216 225 236 239 239 240 240 237 234 232 233 234 234 235 235 235 237 239 238 238 240 240 240 240 240 239 240 243 244 243 243 243 244 245 245 245 246
242 250 253 253 250 251 258 250 233 232 236 232 228 226 219 212 220 235 239 238 236 235 235 235 236 236 235 236 236 235 236 237 240 240 240 240 240 240 241 241 241 242 243 244 243 245 246 247 248 247 247 248
243 252 255 255 253 253 258 252 234 232 240 237 230 228 224 220 225 238 240 239 237 234 233 233 236 238 238 238 237 236 236 236 239 241 241 241 241 241 242 243 244 242 243 243 243 245 247 247 248 247 247 247
247 250 252 255 260 257 254 249 239 236 240 242 238 237 237 229 226 236 240 239 238 236 236 236 236 238 239 240 239 238 237 236 237 240 242 243 243 244 243 244 245 245 245 246 246 247 248 249 251 251 249 248
257 254 254 256 262 261 253 245 236 232 235 242 246 245 247 237 230 239 241 236 233 230 232 238 240 241 241 241 240 240 238 236 236 238 240 242 244 245 245 246 247 248 249 250 251 253 255 256 257 256 253 253
256 255 255 256 259 258 253 245 235 227 229 237 240 237 243 249 249 254 249 235 230 228 231 239 247 250 247 244 242 241 239 238 237 238 239 240 242 244 246 247 249 251 252 253 255 257 259 260 260 259 257 257
Height
3087 3088 3089 3090 3091 3093 3094 3094 3096 3097 3099 3101 3101 3103 3105 3106 3107 3107 3107 3108 3109 3110 3110 3111 3111 3112 3112 3113 3113 3114 3114 3114 3114 3114 3114 3115 3116 3116 3116 3117 3117 3118 3118 3119 3120 3121 3122 3122 3123 3123 3123 3124
3083 3085 3087 3088 3089 3090 3091 3093 3094 3095 3098 3099 3100 3101 3103 3104 3105 3105 3105 3106 3107 3108 3108 3109 3109 3110 3111 3111 3112 3112 3112 3112 3112 3112 3113 3113 3114 3114 3115 3115 3116 3117 3117 3118 3119 3120 3121 3121 3122 3122 3122 3123
3080 3082 3084 3085 3086 3087 3089 3090 3091 3094 3096 3097 3098 3099 3101 3102 3102 3103 3103 3105 3105 3106 3107 3107 3107 3108 3109 3110 3110 3110 3111 3111 3111 3111 3111 3111 3112 3113 3113 3114 3115 3116 3116 3117 3118 3119 3120 3120 3121 3121 3121 3122
3077 3079 3081 3082 3083 3084 3086 3087 3089 3093 3094 3095 3096 3098 3098 3099 3100 3101 3102 3103 3104 3104 3105 3105 3106 3107 3107 3108 3109 3109 3109 3109 3109 3109 3109 3109 3110 3111 3111 3112 3114 3115 3115 3116 3117 3118 3118 3119 3120 3120 3121 3121
3075 3077 3078 3079 3080 3081 3083 3085 3088 3091 3091 3092 3094 3096 3097 3097 3098 3099 3100 3101 3102 3102 3103 3104 3105 3105 3106 3107 3107 3107 3107 3107 3108 3108 3108 3108 3108 3109 3110 3111 3112 3114 3115 3115 3116 3117 3117 3118 3119 3120 3120 3121
3074 3075 3076 3077 3078 3079 3081 3083 3087 3088 3088 3089 3091 3093 3095 3095 3096 3097 3098 3099 3100 3100 3101 3103 3103 3104 3105 3105 3106 3106 3106 3106 3106 3106 3106 3106 3107 3107 3108 3110 3111 3112 3113 3114 3115 3115 3116 3117 3118 3119 3120 3120
3072 3073 3074 3075 3076 3078 3079 3081 3084 3085 3085 3087 3089 3091 3092 3093 3094 3095 3097 3098 3098 3099 3100 3101 3102 3103 3103 3104 3104 3105 3105 3105 3105 3105 3105 3105 3105 3106 3107 3108 3110 3111 3112 3113 3114 3114 3115 3116 3117 3117 3118 3119
3070 3071 3073 3075 3075 3077 3078 3078 3081 3082 3083 3085 3087 3088 3090 3091 3092 3093 3095 3096 3096 3097 3099 3100 3100 3101 3102 3102 3103 3103 3104 3103 3103 3103 3104 3104 3104 3105 3106 3107 3108 3110 3111 3112 3113 3113 3114 3114 3115 3116 3117 3118
3068 3069 3071 3073 3074 3075 3076 3077 3080 3081 3081 3083 3085 3087 3088 3089 3090 3091 3093 3094 3094 3096 3097 3098 3099 3100 3100 3101 3102 3102 3102 3102 3102 3102 3102 3103 3103 3104 3105 3106 3107 3108 3110 3111 3111 3112 3112 3113 3114 3115 3116 3117
3065 3067 3069 3071 3073 3073 3074 3076 3078 3078 3078 3079 3081 3084 3086 3087 3088 3089 3091 3092 3092 3094 3095 3096 3097 3098 3099 3100 3100 3101 3101 3101 3101 3101 3101 3101 3102 3103 3103 3104 3106 3107 3108 3110 3110 3111 3111 3112 3112 3113 3114 3115
3063 3065 3068 3070 3071 3072 3072 3073 3075 3075 3075 3077 3079 3082 3084 3085 3086 3088 3089 3090 3090 3092 3093 3095 3096 3096 3097 3098 3099 3099 3100 3100 3100 3100 3100 3100 3101 3101 3102 3103 3104 3106 3107 3108 3109 3109 3110 3111 3111 3111 3112 3114
3062 3064 3066 3067 3069 3070 3070 3071 3072 3073 3074 3076 3078 3080 3082 3083 3084 3086 3087 3088 3089 3090 3092 3093 3094 3095 3096 3097 3097 3098 3098 3099 3099 3099 3099 3100 3100 3100 3101 3102 3103 3104 3105 3106 3107 3108 3109 3109 3110 3110 3111 3112
3061 3062 3064 3066 3067 3068 3068 3069 3070 3072 3072 3075 3078 3079 3080 3081 3083 3084 3085 3086 3087 3089 3090 3091 3092 3093 3094 3095 3096 3097 3097 3097 3098 3098 3098 3099 3099 3100 3100 3101 3102 3103 3104 3105 3106 3107 3107 3108 3108 3109 3110 3111
3058 3060 3062 3063 3065 3066 3067 3067 3068 3069 3070 3073 3076 3078 3079 3080 3081 3082 3083 3084 3085 3087 3088 3090 3091 3092 3092 3093 3094 3095 3096 3096 3096 3096 3097 3098 3098 3099 3099 3100 3101 3102 3103 3104 3105 3106 3106 3106 3106 3107 3108 3109
3056 3058 3060 3062 3063 3065 3065 3065 3066 3067 3069 3071 3073 3076 3077 3078 3079 3080 3081 3082 3084 3085 3087 3088 3089 3090 3091 3092 3093 3094 3094 3095 3095 3095 3096 3096 3097 3098 3099 3099 3099 3100 3102 3103 3104 3105 3105 3105 3105 3106 3107 3108
3056 3058 3058 3060 3062 3063 3063 3064 3065 3066 3068 3070 3072 3074 3076 3077 3078 3079 3080 3081 3083 3084 3085 3087 3088 3088 3089 3090 3091 3092 3093 3093 3093 3094 3094 3095 3096 3097 3098 3098 3098 3099 3100 3102 3103 3104 3104 3104 3104 3105 3106 3106
3054 3056 3057 3058 3060 3061 3061 3062 3063 3066 3067 3068 3069 3072 3074 3075 3077 3078 3079 3080 3081 3082 3084 3085 3086 3087 3087 3088 3089 3090 3091 3092 3092 3092 3093 3094 3095 3096 3097 3097 3097 3098 3099 3100 3102 3103 3103 3102 3103 3103 3104 3105
3053 3054 3055 3057 3059 3059 3060 3061 3062 3064 3065 3065 3066 3068 3071 3074 3075 3077 3077 3078 3079 3081 3082 3083 3084 3085 3086 3086 3088 3089 3090 3090 3090 3091 3092 3093 3094 3095 3095 3096 3096 3097 3097 3098 3100 3101 3102 3102 3101 3102 3103 3103
3051 3052 3053 3055 3057 3057 3059 3060 3060 3061 3062 3062 3063 3065 3068 3071 3074 3075 3076 3077 3078 3079 3080 3081 3082 3083 3084 3085 3086 3087 3088 3089 3089 3089 3090 3091 3092 3093 3094 3095 3095 3096 3096 3097 3098 3099 3101 3101 3100 3101 3101 3102
3049 3050 3051 3053 3055 3056 3057 3057 3058 3058 3058 3059 3060 3063 3066 3069 3072 3074 3074 3075 3076 3077 3078 3079 3080 3081 3082 3083 3084 3085 3086 3087 3088 3088 3089 3090 3090 3091 3092 3093 3094 3095 3095 3096 3096 3097 3098 3099 3099 3100 3100 3101
3048 3049 3051 3051 3052 3054 3054 3055 3055 3055 3055 3056 3058 3061 3064 3066 3069 3071 3072 3073 3074 3075 3077 3078 3079 3079 3080 3081 3082 3083 3084 3085 3086 3087 3087 3088 3089 3090 3091 3092 3092 3093 3094 3095 3095 3095 3096 3097 3098 3098 3099 3099
3047 3048 3049 3049 3050 3051 3052 3052 3053 3052 3053 3054 3056 3058 3061 3064 3066 3067 3069 3070 3072 3073 3074 3076 3077 3078 3078 3079 3080 3081 3082 3083 3084 3085 3086 3086 3087 3088 3089 3090 3090 3091 3092 3093 3093 3094 3094 3095 3096 3097 3097 3098
3044 3046 3047 3047 3049 3049 3050 3051 3051 3051 3051 3052 3054 3056 3058 3061 3063 3065 3066 3067 3068 3070 3072 3073 3074 3075 3076 3077 3078 3079 3080 3081 3082 3083 3084 3084 3085 3085 3087 3088 3088 3089 3090 3091 3092 3092 3093 3093 3094 3095 3096 3096
3043 3044 3045 3046 3047 3047 3048 3049 3050 3050 3050 3051 3052 3054 3056 3059 3061 3063 3064 3064 3065 3067 3069 3070 3072 3073 3074 3074 3076 3077 3078 3079 3080 3081 3082 3082 3083 3084 3085 3086 3087 3087 3088 3089 3090 3090 3091 3092 3092 3093 3094 3095
3042 3043 3044 3044 3045 3045 3047 3048 3048 3048 3048 3049 3051 3052 3054 3057 3059 3060 3061 3062 3063 3064 3066 3067 3069 3070 3071 3072 3073 3075 3076 3076 3077 3078 3080 3080 3081 3082 3083 3084 3084 3085 3085 3086 3087 3088 3089 3089 3090 3091 3092 3093
3040 3041 3042 3042 3043 3044 3045 3046 3047 3047 3047 3048 3049 3050 3052 3054 3056 3057 3059 3060 3061 3062 3063 3064 3066 3067 3068 3069 3070 3072 3073 3073 3074 3076 3077 3078 3079 3080 3080 3081 3082 3082 3083 3084 3085 3085 3086 3087 3088 3089 3089 3091
3037 3038 3039 3039 3040 3041 3042 3043 3045 3045 3046 3047 3047 3048 3050 3051 3053 3054 3056 3057 3059 3060 3060 3061 3063 3064 3065 3066 3067 3069 3070 3071 3072 3073 3074 3075 3076 3077 3077 3078 3079 3080 3080 3081 3081 3082 3082 3083 3084 3085 3087 3088
3035 3035 3036 3036 3037 3038 3038 3040 3042 3043 3044 3044 3045 3046 3048 3049 3050 3051 3053 3054 3056 3057 3058 3059 3060 3061 3062 3063 3065 3066 3067 3068 3069 3070 3071 3072 3073 3074 3074 3075 3076 3077 3077 3077 3078 3078 3079 3080 3081 3082 3084 3085
3032 3032 3033 3033 3034 3034 3034 3036 3038 3040 3040 3042 3043 3045 3046 3046 3048 3049 3050 3052 3053 3054 3055 3056 3057 3058 3059 3060 3062 3063 3064 3065 3066 3067 3067 3068 3069 3070 3072 3072 3073 3073 3074 3075 3075 3075 3076 3077 3078 3080 3081 3081
3029 3029 3030 3031 3031 3032 3032 3032 3034 3036 3038 3039 3041 3043 3044 3045 3046 3047 3048 3049 3050 3052 3053 3054 3055 3055 3056 3057 3058 3060 3061 3061 3063 3064 3064 3065 3066 3067 3068 3069 3069 3071 3072 3073 3072 3073 3074 3074 3075 3077 3078 3078
3027 3027 3027 3028 3029 3029 3030 3030 3031 3032 3034 3036 3038 3039 3041 3042 3043 3045 3046 3047 3048 3049 3050 3052 3053 3053 3053 3054 3055 3057 3057 3058 3059 3060 3061 3061 3063 3064 3065 3065 3066 3068 3069 3069 3070 3071 3071 3071 3072 3073 3074 3074